Location: Newark
(46.7000°N, 60.6000°W)
Time: 19:28:55
(UTC+00:00)

X-37B - Visible Passes

Search period start: 28 September 2020 00:00
Search period end: 08 October 2020 00:00
Orbit: 386 x 387 km, 45.0° (Epoch: 18 September)

Date Brightness Start Highest point End Pass type
(mag) Time Alt. Az. Time Alt. Az. Time Alt. Az.
01 Oct 3.1 23:10:48 10° S 23:11:02 11° S 23:11:02 11° S visible
02 Oct 3.2 23:47:13 10° SW 23:47:47 14° SW 23:47:47 14° SW visible
03 Oct 2.1 22:49:11 10° SSW 22:51:39 21° SSE 22:52:06 20° SE visible
04 Oct 1.7 23:26:22 10° WSW 23:28:36 34° SSW 23:28:36 34° SSW visible
05 Oct 1.7 22:28:05 10° SW 22:30:56 30° SSE 22:32:43 18° ESE visible
06 Oct 3.4 00:04:10 10° WSW 00:05:00 17° WSW 00:05:00 17° WSW visible
06 Oct 0.7 23:05:40 10° WSW 23:08:47 55° S 23:09:03 53° SE visible
07 Oct 1.2 22:07:15 10° WSW 22:10:16 43° SSE 22:13:04 12° E visible
07 Oct 2.4 23:43:34 10° W 23:45:20 29° WSW 23:45:20 29° WSW visible
